Cavern City Air Terminal Carlsbad US
ICAO: KCNM
IATA: CNM
Category: Medium
Scheduled Services: Yes

Elevation: 3295 ft
TransAlt. 18000 ft.

Airport Communications:
ASOS:118.375
ALBUQUERQUE CNTR:135.875
ALBUQUERQUE RDO:122.65
CTAF/UNICOM:122.95

KCNM Zoom In..

Runways:

(A) RW 03 length 7854 ft width 150 ft
ILS 111.90 / hdg 34

(B) RW 08 length 5334 ft width 75 ft
---- / hdg 80

(C) RW 14L length 4616 ft width 150 ft
---- / hdg 146

(D) RW 14R length 5837 ft width 100 ft
---- / hdg 144

(E) RW 21 length 7854 ft width 150 ft
---- / hdg 214

(F) RW 26 length 5334 ft width 75 ft
---- / hdg 260

(G) RW 32L length 5837 ft width 100 ft
---- / hdg 324

(H) RW 32R length 4616 ft width 150 ft
---- / hdg 326

Location; KCNM
Day. 22 / Time. 01.53 Zulu
* Altimeter: 29.87
* Temperature: 28° c. 82.4°f.
* Wind from: 130° Speed 11 kn.
Dewpoint: 11° c.
Visibility: 10 Statute Miles.
Clouds: Broken 8500 ft.

KCNM 220153Z AUTO 13011KT 10SM BKN085 28/11 A2987 RMK AO2 SLP063 T02830111


Wind From 130°
Speed 11 kn.

 
 
jpsmedia.com for Web Design SOUNDCLOUD worldairports.se 2018   terms of use